Location: ??
(35.4032°N, 139.3073°E)
Time: 13:43:43
(UTC+00:00)

USA 308 - Pass Details

Date: 13 April 2024
Orbit: 493 x 493 km, 54.0° (Epoch: 14 March)

Event Time Altitude Azimuth Distance (km) Brightness Sun altitude
Exits shadow 18:26:41 36° 156° (SSE) 766 3.4 -20.9°
Maximum altitude 18:27:22 39° 128° (SE) 720 3.5 -20.7°
Drops below altitude 10° 18:31:01 10° 59° (ENE) 1,688 6.5 -20.1°
Sets 18:33:20 0° 52° (NE) 2,578 7.8 -19.7°
